Regional Weather Roundup
Issued by NWS Sterling, VA

Home | Current Version | Previous Version | Graphics & Text | Print | Product List | Glossary On
Versions: 1 2 3 4 5 6 7 8 9 10 11 12 13 14 15 16 17 18 19 20 21 22 23 24 25 26 27 28 29 30 31 32 33 34 35 36 37 38 39 40 41 42 43 44 45 46 47 48 49 50
153
ASUS41 KLWX 152110
RWRLWX

REGIONAL WEATHER ROUNDUP
NATIONAL WEATHER SERVICE BALTIMORE MD/WASHINGTON DC
400 PM EST SUN JAN 15 2017

Note: "FAIR" indicates few or no clouds below 12,000 feet
with no significant weather and/or obstructions to visibility.
 TC=TEMPERATURE CELSIUS

 * =Non NWS site. Station does not report precipitation (e.g. rain,
    snow, etc.), thunder, or fog.

DCZ001-MDZ009-015-VAZ040>042-051-053>054-152200-
WASHINGTON METRO

CITY           SKY/WX    TMP DP  RH WIND       PRES   REMARKS
WASHINGTON NAT PTSUNNY   47  19  33 NE5       30.37R
DULLES         CLOUDY    43  15  32 N6        30.36R
ANDREWS AFB    MOSUNNY   43  20  39 CALM      30.35R
FT BELVOIR     CLOUDY    47   8  20 N7        30.36R
QUANTICO       MOSUNNY   46  25  43 E8        30.37S
COLLEGE PARK*  SUNNY     43  18  36 CALM      30.36S
LEESBURG*      CLOUDY    43  23  45 MISG      30.37R
MANASSAS*      SUNNY    N/A N/A N/A N12       30.37R
GAITHERSBURG*  CLOUDY    39  19  45 CALM      30.39S

$$

MDZ006>007-011-014-152200-
BALTIMORE METRO

CITY           SKY/WX    TMP DP  RH WIND       PRES   REMARKS
BWI AIRPORT    PTSUNNY   43  26  51 VRB3      30.36S
MD SCIENCE CTR   N/A     43  21  41 MISG      30.35F
MARTIN STATE   PTSUNNY   39  34  81 CALM      30.38S
ANNAPOLIS      MOSUNNY   42  32  67 SE7       30.36S
FORT MEADE*    MOSUNNY   41  25  52 W5        30.39S

$$

MDZ012-015-019>023-152200-
MARYLAND EASTERN SHORE

CITY           SKY/WX    TMP DP  RH WIND       PRES   REMARKS
OCEAN CITY     CLEAR     41  26  55 E5        30.36R
SALISBURY      SUNNY     42  28  57 W5        30.36R
BAY BRIDGE AP* MOSUNNY   41  27  56 N3        30.37S
CAMBRIDGE*     MOSUNNY   39  28  65 CALM      30.37R
EASTON*        PTSUNNY   41  28  60 NW8       30.41R

$$

MDZ017>025-152200-
SOUTHERN MARYLAND

CITY           SKY/WX    TMP DP  RH WIND       PRES   REMARKS
PATUXENT RIVER CLOUDY    41  24  51 NE7       30.37S
ST INIGOES     NOT AVBL
LEONARDTOWN*   CLOUDY    39  23  52 CALM      30.38S

$$

MDZ003>005-152200-
NORTH CENTRAL MARYLAND

CITY           SKY/WX    TMP DP  RH WIND       PRES   REMARKS
FREDERICK*     SUNNY     41  25  52 CALM      30.38F
HAGERSTOWN APT CLOUDY    39  20  46 CALM      30.34S
WESTMINSTER*   CLOUDY    37  18  44 NE3       30.32F

$$

MDZ501>502-152200-
WESTERN MARYLAND

CITY           SKY/WX    TMP DP  RH WIND       PRES   REMARKS
OAKLAND*         N/A     32  30  93 CALM      30.26S
CUMBERLAND*    CLOUDY    41  30  65 CALM      30.37S

$$

VAZ025>031-152200-
SHENANDOAH VALLEY

CITY           SKY/WX    TMP DP  RH WIND       PRES   REMARKS
WINCHESTER*    CLOUDY    37  21  52 E5        30.34S
FRONT ROYAL*   NOT AVBL
LURAY*         FAIR      45  37  76 N5        30.31S
NEW MARKET*    MOCLDY    45  34  66 N3        30.30S
STAUNTON*      CLOUDY    45  38  75 N5        30.31S
WAYNESBORO*    CLOUDY    42  38  87 E3        30.30R

$$

WVZ021-048>050-054>055-152200-
EASTERN WEST VIRGINIA PANHANDLE

CITY           SKY/WX    TMP DP  RH WIND       PRES   REMARKS
MARTINSBURG    CLOUDY    39  19  44 N7        30.35R
PETERSBURG*    CLOUDY    44  37  78 CALM      30.32F

$$

VAZ036>039-050-152200-
CENTRAL FOOTHILLS

CITY           SKY/WX    TMP DP  RH WIND       PRES   REMARKS
CHARLOTTESVILL CLOUDY    44  38  79 N3        30.34S
CULPEPER*      CLOUDY    47  31  54 CALM      30.37R
ORANGE*          N/A     45  37  76 CALM      30.36S
GORDONSVILLE*  CLOUDY    44  38  79 CALM      30.34S
WARRENTON*     CLOUDY    46  21  37 NE6       30.35S

$$

VAZ055>057-152200-
NORTH AND CENTRAL PIEDMONT

CITY           SKY/WX    TMP DP  RH WIND       PRES   REMARKS
FREDERICKSBRG* MOSUNNY   47  28  47 NE3       30.35S
STAFFORD*      PTSUNNY   46  27  48 CALM      30.40R

$$

NCZ024-NYZ072-PAZ021-071-VAZ022-071-152200-
OTHER REGIONAL OBSERVATIONS

CITY           SKY/WX    TMP DP  RH WIND       PRES   REMARKS
NEW YORK CITY  CLEAR     38  20  48 NW3       30.35R
PHILADELPHIA   MOCLDY    40  20  44 N8        30.35S
PITTSBURGH     CLOUDY    34  20  56 CALM      30.35S
ROANOKE        CLOUDY    49  41  74 SE10      30.30R
RICHMOND       PTSUNNY   48  27  44 NE7       30.35R
RALEIGH        PTSUNNY   55  40  56 E10       30.29F

$$

ANZ530>537-152200-
MARINE OBSERVATIONS

STATION/POSITION TIME  TEMP    WIND        PRES
                       AIR SEA DIR/SP/G
                 (UTC) (F)     (DEG/KT/KT) (MB)
THOMAS PT LIGHT  2100   38 38   50/  7/  7   N/A
BALT KEY BRIDGE  2048   43      CALM  /  1 1028.4S
COVE POINT       2048   38     350/  3/  4 1029.2R
LEWISETTA        2048   42 42   60/  4/  6 1027.9F
SOLOMONS ISLAND  2036   41 41   30/  4/  6   N/A
PINEY POINT      2048           70/  3/  4   N/A

$$





USA.gov is the U.S. government's official web portal to all federal, state and local government web resources and services.